Location: Birdsville
(25.8981°S, 139.3523°E)
Time: 15:06:53
(UTC+10:00)

ISS - Visible Passes

Search period start: 02 December 2023 00:00
Search period end: 12 December 2023 00:00
Orbit: 416 x 417 km, 51.6° (Epoch: 01 December)

Date Brightness Start Highest point End Pass type
(mag) Time Alt. Az. Time Alt. Az. Time Alt. Az.
09 Dec -1.7 19:51:09 10° NE 19:51:37 10° ENE 19:52:06 10° ENE visible
09 Dec -2.4 21:24:49 10° WNW 21:28:00 39° SW 21:31:13 10° SSE visible
10 Dec -3.8 20:35:57 10° NW 20:39:18 89° SW 20:42:42 10° SE visible
11 Dec -1.3 04:47:54 10° SSW 04:50:52 27° SE 04:53:47 10° ENE visible
11 Dec -3.3 19:47:29 10° NNW 19:50:38 39° NE 19:53:49 10° ESE visible
11 Dec -0.3 21:25:49 10° WSW 21:27:28 13° SW 21:29:08 10° S visible
